Fresno, CA

4:37 AM PST on November 13, 2019 (GMT -0800)
Fresno Yosemite International

Weather History for KFAT - September, 2019

Change the Weather History Date:

Saturday, September 7, 2019

  Actual Average Record
Temperature  
Mean Temperature 79 °F 78 °F  
Max Temperature 93 °F 93 °F 108 °F (1904)
Min Temperature 64 °F 63 °F 50 °F (1964)
Degree Days  
Heating Degree Days 0    
Month to date heating degree days 0  
Since 1 July heating degree days 0  
Cooling Degree Days 14    
Month to date cooling degree days 150  
Year to date cooling degree days 2091  
Growing Degree Days 30 (Base 50)    
Moisture  
Dew Point 52 °F    
Average Humidity 40    
Maximum Humidity 59    
Minimum Humidity 21    
Precipitation  
Precipitation 0.00 in 0.00 in 0.22 in (1958)
Month to date precipitation 0.00 0.01  
Year to date precipitation 9.52 7.87  
Snow  
Snow 0.00 in - - ()
Month to date snowfall 0.0  
Since 1 July snowfall 0.0  
Since 1 September snowfall 0.0  
Snow Depth 0.00 in    
Sea Level Pressure  
Sea Level Pressure 29.93 in    
Wind  
Wind Speed 11 mph (NW)    
Max Wind Speed 26 mph    
Max Gust Speed 33 mph    
Visibility 10 miles    
Events      
T = Trace of Precipitation, MM = Missing Value Source: NWS Daily Summary

Daily Weather History Graph

Daily Weather History Graph

Search for Another Location

Airport or City:

Astronomy

Sep. 07, 2019 Rise Set
Actual Time 6:34 AM PDT 7:18 PM PDT
Civil Twilight 6:08 AM PDT 7:44 PM PDT
Nautical Twilight 5:37 AM PDT 8:15 PM PDT
Astronomical Twilight 5:05 AM PDT 8:47 PM PDT
Moon 3:31 PM PDT (9/7) 12:37 AM PDT (9/7)
Length of Visible Light 13h 36m
Length of Day
12h 43m
Waxing Gibbous, 67% of the Moon is Illuminated
Sep 7
Waxing Gibbous
Sep 13
Full
Sep 21
Last Quarter
Sep 28
New
Oct 5
First Quarter

Hourly Weather History & Observations

Time (PDT) Temp. Heat Index Dew Point Humidity Pressure Visibility Wind Dir Wind Speed Gust Speed Precip Events Conditions
12:53 AM 78.1 °F - 52.0 °F 40% 29.96 in 10.0 mi WNW 9.2 mph - N/A   Clear
1:53 AM 75.0 °F - 54.0 °F 48% 29.95 in 10.0 mi NW 8.1 mph - N/A   Clear
2:53 AM 73.0 °F - 53.1 °F 49% 29.95 in 10.0 mi NNW 6.9 mph - N/A   Clear
3:53 AM 72.0 °F - 53.1 °F 51% 29.95 in 10.0 mi NNW 6.9 mph - N/A   Clear
4:53 AM 70.0 °F - 53.1 °F 55% 29.94 in 10.0 mi NNW 4.6 mph - N/A   Clear
5:53 AM 70.0 °F - 54.0 °F 57% 29.95 in 10.0 mi West 4.6 mph - N/A   Partly Cloudy
6:53 AM 68.0 °F - 54.0 °F 61% 29.96 in 10.0 mi NNW 4.6 mph - N/A   Partly Cloudy
7:53 AM 70.0 °F - 52.0 °F 53% 29.99 in 10.0 mi NW 8.1 mph - N/A   Scattered Clouds
8:53 AM 71.1 °F - 53.1 °F 53% 30.00 in 10.0 mi NW 4.6 mph - N/A   Mostly Cloudy
9:53 AM 75.9 °F - 52.0 °F 43% 30.00 in 10.0 mi Calm Calm - N/A   Mostly Cloudy
10:53 AM 82.0 °F 81.2 °F 53.1 °F 37% 29.97 in 10.0 mi Calm Calm - N/A   Mostly Cloudy
11:53 AM 84.9 °F 83.2 °F 53.1 °F 33% 29.95 in 10.0 mi SSE 6.9 mph - N/A   Mostly Cloudy
12:53 PM 89.1 °F - 52.0 °F 28% 29.93 in 10.0 mi SSE 6.9 mph - N/A   Mostly Cloudy
1:53 PM 91.9 °F - 48.9 °F 23% 29.91 in 10.0 mi West 13.8 mph 18.4 mph N/A   Mostly Cloudy
2:53 PM 91.0 °F - 48.9 °F 23% 29.90 in 10.0 mi West 10.4 mph 18.4 mph N/A   Mostly Cloudy
3:53 PM 90.0 °F - 50.0 °F 25% 29.86 in 10.0 mi NW 5.8 mph - N/A   Scattered Clouds
4:53 PM 91.0 °F - 46.9 °F 22% 29.85 in 10.0 mi WNW 17.3 mph - N/A   Partly Cloudy
5:53 PM 87.1 °F - 50.0 °F 28% 29.85 in 8.0 mi NW 21.9 mph 27.6 mph N/A   Partly Cloudy
6:53 PM 81.0 °F - 52.0 °F 36% 29.86 in 3.0 mi NW 24.2 mph 29.9 mph N/A   Widespread Dust
7:53 PM 77.0 °F - 52.0 °F 42% 29.88 in 10.0 mi NW 20.7 mph - N/A   Clear
8:53 PM 73.0 °F - 52.0 °F 48% 29.91 in 10.0 mi NW 17.3 mph - N/A   Clear
9:53 PM 71.1 °F - 51.1 °F 49% 29.91 in 10.0 mi WNW 19.6 mph - N/A   Clear
10:53 PM 68.0 °F - 51.1 °F 55% 29.93 in 10.0 mi WNW 18.4 mph - N/A   Clear
11:53 PM 66.0 °F - 52.0 °F 60% 29.94 in 10.0 mi NW 13.8 mph - N/A   Clear